Regional Weather Roundup
Issued by NWS

Home | Current Version | Previous Version | Graphics & Text | Print | Product List | Glossary On
Versions: 1 2 3 4 5 6 7 8 9 10 11 12 13 14 15 16 17 18 19 20 21 22 23 24 25 26 27
000
ASUS45 KBOI 190510
RWRID
WEATHER ROUNDUP FOR IDAHO
NATIONAL WEATHER SERVICE BOISE ID
1100 PM MDT FRI APR 18 2014

NOTE: "FAIR" INDICATES FEW OR NO CLOUDS BELOW 12000 FEET
WITH NO SIGNIFICANT WEATHER AND/OR OBSTRUCTIONS TO VISIBILITY

IDZ012-014-190600-
SOUTHWEST IDAHO


CITY           SKY/WX    TMP DP  RH WIND       PRES   REMARKS
BOISE          MOCLDY    49  25  39 CALM      29.97S
CALDWELL       MOCLDY    46  23  39 CALM      29.99S
MOUNTAIN HOME  CLOUDY    48  24  38 W6        29.98S
$$

IDZ016-017-190600-
SOUTHCENTRAL IDAHO


CITY           SKY/WX    TMP DP  RH WIND       PRES   REMARKS
BURLEY         CLEAR     43  30  60 S12       29.99S
JEROME         PTCLDY    47  24  40 CALM      30.00S
TWIN FALLS     PTCLDY    47  26  44 S8        30.00S
$$

IDZ019>023-190600-
SOUTHEAST IDAHO


CITY           SKY/WX    TMP DP  RH WIND       PRES   REMARKS
IDAHO FALLS    PTCLDY    47  19  33 S15       29.97S
POCATELLO      CLEAR     46  19  34 S15       30.00R
REXBURG        PTCLDY    46  17  31 S7        29.96R
$$

IDZ006-010-011-018-031-032-190600-
CENTRAL IDAHO MOUNTAINS


CITY           SKY/WX    TMP DP  RH WIND       PRES   REMARKS
MCCALL         CLEAR     32  22  66 VRB3      30.00R
HAILEY         CLOUDY    46  16  29 W5        30.02R
STANLEY          N/A     27  15  61 CALM      30.05R
SALMON         CLEAR     36  18  48 SE6       30.00S WCI  31
CHALLIS        CLEAR     39   9  29 S6        30.00R WCI  35
$$

IDZ002-004-006-007-026-190600-
NORTHERN IDAHO


CITY           SKY/WX    TMP DP  RH WIND       PRES   REMARKS
LEWISTON       CLEAR     45  27  49 SE7       30.00S
LOWELL           N/A     41  35  79 CALM      30.06R
COEUR D`ALENE  CLEAR     45  25  45 S9        29.99R
MULLAN PASS    CLEAR     25  22  88 S7        29.97R WCI  17
$$



USA.gov is the U.S. government's official web portal to all federal, state and local government web resources and services.